Terminal Aerodrome Forecast
Issued by NWS

Home | Current Version | Previous Version | Text Only | Print | Product List | Glossary On
Versions: 1 2 3 4 5 6 7 8 9 10 11 12 13 14 15 16 17 18 19 20 21 22 23 24 25 26 27 28 29
000
FTUS42 KCAE 221135
TAFDNL
TAF
KDNL 221135Z 2212/2312 VRB03KT 6SM BR SCT002
      TEMPO 2212/2213 1SM BR VV002
     FM221300 VRB04KT P6SM SCT025
     FM221800 18006KT P6SM VCSH BKN035
     FM230000 19004KT P6SM SCT150=

USA.gov is the U.S. government's official web portal to all federal, state and local government web resources and services.